KB7DZR Weather Reports


time (UTC)temp
F
wind
direction
speed
knots
gust
knots
rain 1hr
in
rain 24hr
in
rain mn
in
humidity
%
barometer
mb
20260505212006 70 332 1.7 6.1 0.00 0.00 0.00 30 1014.3
20260505211506 69 4 4.3 7.8 0.00 0.00 0.00 30 1014.3
20260505210506 70 341 0.0 4.3 0.00 0.00 0.00 28 1014.5
20260505205006 70 327 4.3 10.4 0.00 0.00 0.00 29 1014.6
20260505204506 70 316 1.7 7.0 0.00 0.00 0.00 27 1014.4
20260505204006 70 335 5.2 13.0 0.00 0.00 0.00 29 1014.5
20260505203507 70 325 6.1 12.2 0.00 0.00 0.00 30 1014.5
20260505203006 68 318 0.0 6.1 0.00 0.00 0.00 33 1014.4
20260505201506 69 348 3.5 6.1 0.00 0.00 0.00 30 1014.5
20260505201007 69 306 0.9 4.3 0.00 0.00 0.00 31 1014.6
20260505200506 70 305 0.0 4.3 0.00 0.00 0.00 31 1014.6
20260505195506 68 329 2.6 10.4 0.00 0.00 0.00 33 1014.6
20260505195005 66 341 4.3 7.0 0.00 0.00 0.00 36 1014.7
20260505191506 66 280 6.1 8.7 0.00 0.00 0.00 34 1014.8
20260505191005 67 314 5.2 8.7 0.00 0.00 0.00 30 1014.7
20260505190507 68 32 0.0 0.0 0.00 0.00 0.00 32 1014.7
20260505185507 68 1 1.7 6.1 0.00 0.00 0.00 32 1014.8
20260505184006 66 302 0.0 5.2 0.00 0.00 0.00 34 1014.8
20260505183506 66 302 0.9 6.1 0.00 0.00 0.00 34 1014.8
20260505183005 66 295 0.9 7.0 0.00 0.00 0.00 36 1014.8
20260505182006 65 307 0.9 7.0 0.00 0.00 0.00 38 1014.8
20260505181007 66 328 0.0 0.0 0.00 0.00 0.00 34 1014.8
20260505180507 66 328 0.9 8.7 0.00 0.00 0.00 36 1014.9
20260505180006 66 310 4.3 10.4 0.00 0.00 0.00 35 1014.8
20260505175505 66 287 2.6 10.4 0.00 0.00 0.00 34 1014.8
20260505174506 65 93 0.0 2.6 0.00 0.00 0.00 37 1014.8
20260505171505 63 170 0.0 0.0 0.00 0.00 0.00 36 1014.7
20260505171006 63 163 0.0 0.0 0.00 0.00 0.00 42 1014.7
20260505170006 62 143 0.0 0.0 0.00 0.00 0.00 43 1014.7
20260505163007 61 143 0.0 0.0 0.00 0.00 0.00 50 1014.6
20260505162006 60 143 0.0 0.0 0.00 0.00 0.00 50 1014.7
20260505152505 54 143 0.0 0.0 0.00 0.00 0.00 66 1014.6
20260505151005 52 143 0.0 0.0 0.00 0.00 0.00 71 1014.6
20260505150504 51 143 0.0 0.0 0.00 0.00 0.00 71 1014.6
20260505140505 43 143 0.0 0.0 0.00 0.00 0.00 80 1014.3
20260505125006 37 143 0.0 0.0 0.00 0.00 0.00 80 1013.7
20260505124506 36 143 0.0 0.0 0.00 0.00 0.00 79 1013.6
20260505124006 36 143 0.0 0.0 0.00 0.00 0.00 79 1013.6
20260505123507 36 143 0.0 0.0 0.00 0.00 0.00 79 1013.6
20260505122006 36 143 0.0 0.0 0.00 0.00 0.00 78 1013.5
20260505121508 37 143 0.0 0.0 0.00 0.00 0.00 78 1013.5
20260505121005 37 143 0.0 0.0 0.00 0.00 0.00 78 1013.3
20260505120507 37 143 0.0 0.0 0.00 0.00 0.00 79 1013.4
20260505114506 37 143 0.0 0.0 0.00 0.00 0.00 79 1013.3
20260505113005 37 158 0.0 0.0 0.00 0.00 0.00 79 1013.3
20260505112007 37 158 0.0 0.0 0.00 0.00 0.00 79 1013.5
20260505111007 37 158 0.0 0.0 0.00 0.00 0.00 78 1013.4
20260505110507 37 158 0.0 0.0 0.00 0.00 0.00 79 1013.3
20260505102006 37 158 0.0 0.0 0.00 0.00 0.00 77 1013.2
20260505101505 37 159 0.0 0.0 0.00 0.00 0.00 77 1013.2
20260505100005 39 158 0.0 0.0 0.00 0.00 0.00 77 1013.1
20260505095507 39 158 0.0 0.0 0.00 0.00 0.00 77 1013.0
20260505095006 39 158 0.0 0.0 0.00 0.00 0.00 77 1013.1
20260505093506 39 159 0.0 0.0 0.00 0.00 0.00 77 1012.9
20260505093006 39 159 0.0 0.0 0.00 0.00 0.00 77 1013.0
20260505092507 39 158 0.0 0.0 0.00 0.00 0.00 77 1013.0
20260505092005 39 158 0.0 0.0 0.00 0.00 0.00 77 1012.9
20260505091005 40 159 0.0 0.0 0.00 0.00 0.00 77 1012.9
20260505090006 40 159 0.0 0.0 0.00 0.00 0.00 77 1012.8
20260505084505 40 159 0.0 0.0 0.00 0.00 0.00 77 1012.9
20260505082007 40 160 0.0 0.0 0.00 0.00 0.00 74 1012.9
20260505080007 41 168 0.0 0.0 0.00 0.00 0.00 75 1012.9
20260505075505 41 167 0.0 0.0 0.00 0.00 0.00 75 1012.8
20260505075005 42 168 0.0 0.0 0.00 0.00 0.00 75 1012.8
20260505074505 41 168 0.0 0.0 0.00 0.00 0.00 75 1012.8
20260505073505 41 168 0.0 0.0 0.00 0.00 0.00 75 1012.8
20260505073005 41 168 0.0 0.0 0.00 0.00 0.00 74 1012.7
20260505071006 42 180 0.0 0.0 0.00 0.00 0.00 74 1012.7
20260505070506 42 186 0.0 0.0 0.00 0.00 0.00 73 1012.7
20260505070005 42 186 0.0 0.0 0.00 0.00 0.00 73 1012.5
20260505065505 43 186 0.0 0.0 0.00 0.00 0.00 73 1012.5
20260505065006 43 186 0.0 0.0 0.00 0.00 0.00 72 1012.5
20260505064505 43 186 0.0 0.0 0.00 0.00 0.00 72 1012.4
20260505064005 43 186 0.0 0.0 0.00 0.00 0.00 73 1012.5
20260505062004 43 186 0.0 0.0 0.00 0.00 0.00 70 1012.5
20260505061505 44 189 0.0 0.0 0.00 0.00 0.00 70 1012.5
20260505061005 44 189 0.0 0.0 0.00 0.00 0.00 70 1012.5
20260505060005 44 189 0.0 0.0 0.00 0.00 0.00 69 1012.5
20260505055504 45 189 0.0 0.0 0.00 0.00 0.00 69 1012.5
20260505054506 46 192 0.0 0.0 0.00 0.00 0.00 68 1012.5
20260505054005 46 197 0.0 0.0 0.00 0.00 0.00 66 1012.5
20260505053005 48 198 0.0 0.0 0.00 0.00 0.00 64 1012.4
20260505052006 48 198 0.0 0.0 0.00 0.00 0.00 63 1012.4
20260505051005 48 198 0.0 0.0 0.00 0.00 0.00 64 1012.5
20260505050505 48 198 0.0 0.0 0.00 0.00 0.00 64 1012.5
20260505041506 52 195 0.0 0.0 0.00 0.00 0.00 57 1012.5
20260505041008 52 195 0.0 0.0 0.00 0.00 0.00 56 1012.5
20260505040006 53 194 0.0 0.0 0.00 0.00 0.00 54 1012.4
20260505035506 54 220 0.0 0.0 0.00 0.00 0.00 53 1012.3
20260505034507 56 0 0.0 0.0 0.00 0.00 0.00 50 1012.2
20260505034006 56 0 0.0 0.0 0.00 0.00 0.00 50 1012.1
20260505033006 57 0 0.0 0.0 0.00 0.00 0.00 49 1012.0
20260505032007 59 0 0.0 0.0 0.00 0.00 0.00 47 1011.9
20260505031007 60 0 0.0 0.0 0.00 0.00 0.00 45 1011.7
20260505030506 60 0 0.0 0.0 0.00 0.00 0.00 43 1011.6
20260505023506 64 0 0.0 0.0 0.00 0.00 0.00 40 1011.2
20260505022507 65 0 0.0 0.0 0.00 0.00 0.00 38 1011.1
20260505021507 66 0 1.7 2.6 0.00 0.00 0.00 35 1011.0
20260505020506 67 5 2.6 2.6 0.00 0.00 0.00 35 1011.0
20260505020005 67 5 2.6 2.6 0.00 0.00 0.00 35 1010.9
20260505015006 67 6 2.6 5.2 0.00 0.00 0.00 34 1010.9
20260505014006 68 9 4.3 6.1 0.00 0.00 0.00 33 1010.9
20260505012506 66 11 4.3 6.1 0.00 0.00 0.00 35 1010.9
20260505012005 66 15 5.2 7.0 0.00 0.00 0.00 36 1010.9
20260505010007 67 16 4.3 6.1 0.00 0.00 0.00 33 1010.9
20260505005505 67 12 3.5 5.2 0.00 0.00 0.00 35 1010.8
20260505005006 67 10 2.6 5.2 0.00 0.00 0.00 34 1010.9
20260505004507 67 8 5.2 6.1 0.00 0.00 0.00 33 1010.8
20260505004006 67 19 4.3 6.1 0.00 0.00 0.00 32 1011.0
20260505002006 68 7 3.5 5.2 0.00 0.00 0.00 32 1010.9
20260505001507 69 5 2.6 6.1 0.00 0.00 0.00 32 1010.8
20260505000505 70 3 2.6 4.3 0.00 0.00 0.00 32 1010.8
20260505000006 70 10 4.3 6.1 0.00 0.00 0.00 30 1010.8
20260504234507 71 10 0.0 1.7 0.00 0.00 0.00 32 1010.7
20260504234005 72 10 1.7 4.3 0.00 0.00 0.00 31 1010.7
20260504233006 73 0 0.0 0.0 0.00 0.00 0.00 28 1010.7
20260504232005 74 1 4.3 15.6 0.00 0.00 0.00 25 1010.7
20260504231008 74 307 11.3 17.4 0.00 0.00 0.00 24 1010.6
20260504225006 74 329 7.8 13.9 0.00 0.00 0.00 22 1010.7
20260504224006 73 347 6.1 11.3 0.00 0.00 0.00 24 1010.8
20260504223507 73 340 2.6 12.2 0.00 0.00 0.00 27 1010.9
20260504222506 74 292 7.0 14.8 0.00 0.00 0.00 27 1011.0
20260504222005 73 315 7.8 13.0 0.00 0.00 0.00 25 1011.1
20260504215005 73 264 7.8 17.4 0.00 0.00 0.00 27 1011.3
20260504214505 73 301 8.7 12.2 0.00 0.00 0.00 27 1011.3
20260504213005 73 298 11.3 17.4 0.00 0.00 0.00 27 1011.5